CFDIA CNC3-CYTZ

Flight info

Callsign CFDIA
Flight time N/A
Altitude 4500
Route VFR
Aircraft DA40/L-SBDFGRY/S

Departure

Time 2026-05-07 00:21
Airport Brampton-Caledon Airport (CNC3)

Arrival

Time N/A
Airport Billy Bishop Toronto City Airport (CYTZ)
Time Latitude Longitude Altitude Speed Heading
2026-05-07 00:19 43.48622 -80.31330 4553 ft 97 kts 65°
2026-05-07 00:19 43.48767 -80.30416 4776 ft 99 kts 65°
2026-05-07 00:20 43.48917 -80.29482 4975 ft 101 kts 65°
2026-05-07 00:20 43.49086 -80.28445 5015 ft 121 kts 68°
2026-05-07 00:20 43.49274 -80.27239 5010 ft 134 kts 70°
2026-05-07 00:20 43.49474 -80.25937 5009 ft 143 kts 70°
2026-05-07 00:21 43.49685 -80.24587 5007 ft 149 kts 70°
2026-05-07 00:21 43.49907 -80.23177 5011 ft 151 kts 71°
2026-05-07 00:21 43.50132 -80.21750 5005 ft 154 kts 71°
2026-05-07 00:21 43.50360 -80.20308 5004 ft 154 kts 71°
2026-05-07 00:22 43.50589 -80.18862 5001 ft 155 kts 71°
2026-05-07 00:22 43.50818 -80.17416 5002 ft 154 kts 70°
2026-05-07 00:22 43.51046 -80.15976 5010 ft 154 kts 71°
2026-05-07 00:22 43.51273 -80.14537 5010 ft 154 kts 71°
2026-05-07 00:23 43.51499 -80.13102 5007 ft 153 kts 71°
2026-05-07 00:23 43.51725 -80.11667 5006 ft 152 kts 71°
2026-05-07 00:23 43.51949 -80.10246 5011 ft 151 kts 71°
2026-05-07 00:23 43.52143 -80.08816 5007 ft 153 kts 77°
2026-05-07 00:24 43.52264 -80.07350 5007 ft 154 kts 78°
2026-05-07 00:24 43.52379 -80.05886 5007 ft 153 kts 78°
2026-05-07 00:24 43.52497 -80.04427 5012 ft 153 kts 78°
2026-05-07 00:24 43.52616 -80.02990 5008 ft 153 kts 78°
2026-05-07 00:25 43.52737 -80.01537 5008 ft 153 kts 78°
2026-05-07 00:25 43.52858 -80.00085 5010 ft 152 kts 78°
2026-05-07 00:25 43.52978 -79.98636 5009 ft 152 kts 78°
2026-05-07 00:25 43.53099 -79.97184 5010 ft 153 kts 78°
2026-05-07 00:26 43.53219 -79.95727 5007 ft 153 kts 78°
2026-05-07 00:26 43.53341 -79.94276 5007 ft 152 kts 77°
2026-05-07 00:26 43.53459 -79.92827 5008 ft 152 kts 78°
2026-05-07 00:26 43.53577 -79.91379 5009 ft 152 kts 78°
2026-05-07 00:27 43.53700 -79.89926 5011 ft 153 kts 78°
2026-05-07 00:27 43.53815 -79.88469 5011 ft 153 kts 78°
2026-05-07 00:27 43.53933 -79.87017 5011 ft 153 kts 78°
2026-05-07 00:27 43.54051 -79.85578 5012 ft 153 kts 78°
2026-05-07 00:28 43.54172 -79.84116 5007 ft 154 kts 78°
2026-05-07 00:28 43.54292 -79.82647 5007 ft 154 kts 78°
2026-05-07 00:28 43.54412 -79.81176 5012 ft 154 kts 78°
2026-05-07 00:28 43.54531 -79.79711 5006 ft 154 kts 78°
2026-05-07 00:29 43.54650 -79.78255 5007 ft 152 kts 81°
2026-05-07 00:29 43.54766 -79.76814 5007 ft 151 kts 81°
2026-05-07 00:30 43.55112 -79.72528 5005 ft 149 kts 81°
2026-05-07 00:30 43.55226 -79.71108 5005 ft 149 kts 81°
2026-05-07 00:30 43.55339 -79.69702 5006 ft 149 kts 80°
2026-05-07 00:30 43.55453 -79.68281 5004 ft 149 kts 81°
2026-05-07 00:31 43.55567 -79.66860 5002 ft 148 kts 80°
2026-05-07 00:31 43.55680 -79.65444 5002 ft 148 kts 81°
2026-05-07 00:31 43.55793 -79.64031 5009 ft 148 kts 81°
2026-05-07 00:31 43.55906 -79.62615 5007 ft 149 kts 79°
2026-05-07 00:32 43.56019 -79.61197 5007 ft 149 kts 79°
2026-05-07 00:32 43.56130 -79.59784 5007 ft 147 kts 79°
2026-05-07 00:32 43.56241 -79.58386 4985 ft 148 kts 79°
2026-05-07 00:32 43.56357 -79.56927 4795 ft 157 kts 80°
2026-05-07 00:33 43.56477 -79.55404 4587 ft 162 kts 80°
2026-05-07 00:33 43.56597 -79.53862 4377 ft 164 kts 80°
2026-05-07 00:33 43.56721 -79.52286 4165 ft 166 kts 80°
2026-05-07 00:33 43.56846 -79.50703 3954 ft 166 kts 80°
2026-05-07 00:34 43.56971 -79.49121 3746 ft 166 kts 81°
2026-05-07 00:34 43.57095 -79.47538 3538 ft 166 kts 81°
2026-05-07 00:34 43.57219 -79.45953 3332 ft 166 kts 81°
2026-05-07 00:34 43.57342 -79.44368 3124 ft 166 kts 81°
2026-05-07 00:35 43.57465 -79.42785 2912 ft 165 kts 81°
2026-05-07 00:35 43.57588 -79.41208 2705 ft 165 kts 81°
2026-05-07 00:35 43.57711 -79.39634 2495 ft 165 kts 81°
2026-05-07 00:35 43.57832 -79.38067 2285 ft 164 kts 81°
2026-05-07 00:36 43.57953 -79.36505 2076 ft 163 kts 81°
2026-05-07 00:36 43.58072 -79.34975 1991 ft 156 kts 81°
2026-05-07 00:36 43.58184 -79.33523 1986 ft 149 kts 81°
2026-05-07 00:36 43.58291 -79.32134 1983 ft 146 kts 80°
2026-05-07 00:37 43.58398 -79.30755 1983 ft 144 kts 81°
2026-05-07 00:37 43.58505 -79.29381 1983 ft 144 kts 80°
2026-05-07 00:37 43.58606 -79.28033 1981 ft 138 kts 81°
2026-05-07 00:37 43.58706 -79.26725 1985 ft 136 kts 80°
2026-05-07 00:38 43.58806 -79.25423 1990 ft 137 kts 80°
2026-05-07 00:38 43.58907 -79.24118 1991 ft 137 kts 80°
2026-05-07 00:38 43.59006 -79.22814 1990 ft 137 kts 80°
2026-05-07 00:38 43.59105 -79.21508 1991 ft 137 kts 80°
2026-05-07 00:39 43.59205 -79.20197 1985 ft 137 kts 80°
2026-05-07 00:39 43.59304 -79.18887 1985 ft 137 kts 80°
2026-05-07 00:39 43.59403 -79.17579 1992 ft 137 kts 80°
2026-05-07 00:39 43.59523 -79.16275 1982 ft 136 kts 72°
2026-05-07 00:40 43.59955 -79.15174 1992 ft 131 kts 42°
2026-05-07 00:40 43.60693 -79.14514 1990 ft 125 kts 14°
2026-05-07 00:40 43.61534 -79.14406 1990 ft 121 kts 348°
2026-05-07 00:40 43.62340 -79.14696 1992 ft 119 kts 341°
2026-05-07 00:41 43.63135 -79.15015 1992 ft 119 kts 341°
2026-05-07 00:41 43.63931 -79.15335 1993 ft 119 kts 340°
2026-05-07 00:41 43.64731 -79.15655 1992 ft 119 kts 341°
2026-05-07 00:41 43.65529 -79.15974 1993 ft 119 kts 341°
2026-05-07 00:42 43.66311 -79.16347 1981 ft 118 kts 329°
2026-05-07 00:42 43.66921 -79.17086 1990 ft 117 kts 306°
2026-05-07 00:42 43.67241 -79.18116 1991 ft 118 kts 283°
2026-05-07 00:42 43.67206 -79.19245 1990 ft 122 kts 259°
2026-05-07 00:43 43.66973 -79.20370 1990 ft 122 kts 258°
2026-05-07 00:43 43.66734 -79.21490 1991 ft 121 kts 258°
2026-05-07 00:43 43.66497 -79.22604 1992 ft 121 kts 258°
2026-05-07 00:43 43.66262 -79.23719 1992 ft 121 kts 258°
2026-05-07 00:44 43.66026 -79.24834 1993 ft 120 kts 258°
2026-05-07 00:44 43.65791 -79.25947 1994 ft 121 kts 258°
2026-05-07 00:44 43.65556 -79.27062 1994 ft 115 kts 259°
2026-05-07 00:44 43.65349 -79.28044 1995 ft 101 kts 258°
2026-05-07 00:45 43.65152 -79.28965 1996 ft 99 kts 259°
2026-05-07 00:45 43.64966 -79.29844 2004 ft 85 kts 259°
2026-05-07 00:45 43.64801 -79.30626 1941 ft 86 kts 260°
2026-05-07 00:45 43.64639 -79.31431 1796 ft 85 kts 261°
2026-05-07 00:46 43.64494 -79.32140 1647 ft 71 kts 262°
2026-05-07 00:46 43.64362 -79.32782 1523 ft 69 kts 261°
2026-05-07 00:46 43.64233 -79.33416 1395 ft 67 kts 262°
2026-05-07 00:46 43.64109 -79.34020 1264 ft 63 kts 261°
2026-05-07 00:47 43.63989 -79.34607 1160 ft 67 kts 260°
2026-05-07 00:47 43.63862 -79.35241 1021 ft 70 kts 258°
2026-05-07 00:47 43.63730 -79.35892 888 ft 71 kts 255°
2026-05-07 00:47 43.63593 -79.36564 756 ft 73 kts 253°
2026-05-07 00:48 43.63464 -79.37206 618 ft 64 kts 252°
2026-05-07 00:48 43.63318 -79.37831 700 ft 69 kts 246°
2026-05-07 00:48 43.63061 -79.38362 1005 ft 69 kts 228°
2026-05-07 00:48 43.62690 -79.38841 1260 ft 75 kts 227°
2026-05-07 00:49 43.62271 -79.39269 1560 ft 75 kts 220°
2026-05-07 00:49 43.61866 -79.39724 1801 ft 79 kts 230°
2026-05-07 00:49 43.61459 -79.40263 2105 ft 77 kts 231°